COSMOS 1275 DEB, 42118

Orbit data source: Space-Track

COSMOS 1275 DEB, 42118 is space debris in LEO originally from a launch on Thu, 04 Jun 1981 UTC launched from the Plesetsk Missile And Space Complex (PKMTR). Debris objects in space refer to the collection of defunct objects orbiting the Earth. Examples of debris include non-operational satellites, rocket bodies, and fragments generated from explosions, collisions, or faulty payload assembly.

Loading next visibility...
Identifier
42118, 1981-053QE
Orbit
LEO
Country
Flag of CISCIS
Related business
Manufacturer
Unknown
Mission
Spacecraft
Bus & Motor
Unknown
Mass
Unknown
Launch date (UTC)
1981-06-04 (45 years ago)
Launch vehicle
Unknown
Launch site
Plesetsk Missile And Space Complex (PKMTR)
Object type
Payload
Rocket body
Debris
Shape & HBR
Unknown shape, 0.1 m
Radar Cross Section
Small (<0.1 m²)

Expand to show TLE details & history
Last TLE update: 7 hours ago

TLE from 7 hours ago
0 COSMOS 1275 DEB
1 42118U 81053QE  26072.92626296  .00015178  00000-0  35151-2 0  9991
2 42118  82.9451 251.0864 0034195  60.6929 299.7681 14.54651315636908
Epoch: 2026-03-13T22:13Z
TLE epoch observation values (Epoch: 2026-03-13T22:13:49.119Z)
Latitude
-0.00003°
Longitude
106.07694°
Altitude
701.533 km
Speed
7.512 km/s
True Right ascension
16h 44m 20s
True Declination
0° 00' 00"
Sunlit
Object was in daylight at epoch
Visualization orbit readout
Latitude
Unknown
Longitude
Unknown
Altitude
Unknown
Speed
Unknown
Apparent Right ascension
Unknown
Apparent Declination
Unknown
Sunlit
N/A
Visualization observer readout
Local Sidereal Time
09:56:24
Azimuth
Unknown
Elevation
Unknown
Doppler factor
Unknown
Orbital elements
Apogee altitude
731.766 km
Perigee altitude
683.307 km
Semi-major axis
7,085.674 km
Eccentricity
0.00342
Inclination
82.9451°
RAAN
251.0864°
Arg. of periapsis
60.6929°
True anomaly
299.42724°
Mean anomaly
299.7681°
Eccentric anomaly
299.59774°
Mean motion
3.63891 °/min
Orbital period
98.93 mins
BSTAR
0.0035151
Loading maneuver chart data...
Computing Atmospheric mass density...
Loading historical data...
Loading historical data...
Loading historical data...
Loading historical data...
Loading historical data...
Loading historical data...
Loading historical data...

Documentation

Showing up to 5 results
|